Wind_Speed
43 43 42 41 39 38 38 36 40 43 40 37 38 39 42 46 49 49 49 49 48 47 47 47 46 46 46 46 46 46 46 44 43 42 42 42 43 44 44 44 44 43 42 41 41 41 43 46 47 45 41 38 37 35 33 31 29 27 27 28 28 27 26
46 46 47 46 45 45 46 46 49 48 42 40 41 41 41 44 49 53 54 53 50 48 49 50 50 49 50 50 50 48 47 46 45 45 44 43 43 43 44 44 45 45 43 43 43 44 47 48 46 43 39 38 37 35 34 32 29 28 28 28 27 25 24
50 51 50 47 45 46 48 50 51 50 47 45 44 42 43 44 47 50 53 53 51 49 49 49 49 49 50 50 50 49 48 48 47 47 46 45 43 43 43 45 45 45 44 44 46 48 49 48 45 42 40 38 37 36 35 32 30 28 28 28 27 26 26
57 56 50 42 39 40 43 46 49 50 50 48 44 42 43 44 45 47 48 51 51 50 50 49 48 48 48 48 48 47 47 46 46 46 45 43 43 42 42 43 43 44 45 47 49 50 49 47 45 42 40 38 37 36 35 33 30 29 29 29 28 27 26
53 51 45 39 38 39 40 41 44 46 48 47 44 42 42 43 44 44 45 48 50 50 50 49 48 47 47 47 46 46 46 45 45 44 44 44 43 43 43 44 45 47 48 50 50 49 48 47 45 42 39 37 36 35 34 32 30 30 30 30 28 27 27
38 39 38 37 38 39 40 40 41 41 43 44 43 41 41 41 42 43 45 46 47 49 49 47 46 47 47 46 45 45 45 45 44 44 45 46 46 47 47 47 48 49 49 49 49 48 47 46 44 40 37 35 34 33 32 30 29 29 29 28 28 27 26
33 35 38 38 39 40 42 42 41 41 41 41 41 40 37 37 39 40 42 43 44 45 46 45 46 46 46 45 45 44 44 45 45 46 46 47 47 48 48 48 49 49 49 48 47 46 45 43 41 39 37 35 33 32 31 29 27 28 28 26 25 25 25
36 39 42 41 41 41 43 43 41 39 39 38 38 36 33 34 37 39 39 40 40 42 43 44 44 44 44 44 44 44 44 44 45 46 47 47 48 48 49 49 49 49 48 47 46 44 41 39 38 37 36 34 32 31 29 28 27 27 25 22 22 25 27
41 42 43 43 42 42 43 43 39 37 35 35 34 32 30 32 36 36 36 38 39 40 41 42 42 42 42 43 43 44 44 45 45 46 47 47 48 49 49 50 49 49 47 46 43 39 37 36 36 36 35 32 30 29 28 27 26 23 21 21 24 27 28
42 42 44 44 42 43 44 42 38 35 33 32 32 30 29 30 32 32 33 36 38 38 40 41 41 41 41 42 43 44 44 45 45 45 46 47 48 49 50 49 48 47 45 42 39 35 34 34 35 35 33 30 28 28 28 26 24 23 23 25 27 27 26
42 43 44 44 42 43 44 41 38 36 33 31 30 29 29 29 29 30 31 34 36 37 38 39 40 40 41 42 42 43 43 44 44 45 47 49 50 50 49 48 46 44 42 39 36 34 34 33 33 33 30 28 27 26 26 24 24 26 27 28 28 27 27
38 41 42 42 42 42 40 38 36 36 34 32 31 29 29 29 29 29 31 33 35 36 37 39 41 42 43 43 43 43 44 45 46 48 49 50 49 49 47 45 44 42 39 37 35 35 34 32 32 31 30 29 28 27 27 27 27 30 30 30 29 29 30
30 35 40 43 43 41 38 35 35 36 35 34 32 31 30 30 30 30 31 32 34 36 38 40 43 45 46 45 45 45 46 47 48 49 49 49 48 47 46 44 42 40 38 36 36 35 33 32 31 31 31 31 30 30 30 30 30 31 32 31 30 30 31
27 27 35 42 42 39 36 34 33 35 36 35 34 33 32 31 30 31 31 32 34 35 37 39 43 46 47 47 46 46 47 47 48 49 49 49 48 46 45 43 40 39 37 36 35 35 33 32 32 32 32 32 32 33 33 33 32 31 31 31 30 31 30
31 24 27 35 38 36 35 34 33 35 37 37 35 34 33 32 31 31 30 31 32 34 35 37 39 41 43 45 45 46 47 48 49 48 48 46 45 43 42 41 40 38 37 36 36 35 34 33 34 34 34 33 33 34 35 34 32 31 31 30 30 29 29
37 28 27 30 35 36 35 36 36 36 37 37 35 35 34 33 32 30 30 30 31 32 33 34 35 37 39 42 44 45 46 46 45 43 42 41 41 41 40 40 40 39 38 37 36 35 34 34 34 34 34 34 34 33 34 34 32 31 31 30 30 29 29
36 32 28 28 35 39 39 40 40 38 37 36 34 33 33 33 32 31 29 29 30 31 31 32 34 35 37 39 40 41 40 39 38 37 37 37 37 38 38 39 39 38 37 36 36 36 35 34 34 34 35 35 34 33 33 33 32 31 31 31 30 30 30
34 32 27 26 36 43 42 42 42 39 37 35 32 32 33 33 33 31 29 29 30 31 31 32 33 34 35 35 34 34 33 32 31 31 31 32 33 35 36 36 36 35 34 34 35 35 35 35 35 35 36 35 34 32 30 30 30 30 30 30 31 31 32
34 33 26 24 32 41 43 42 41 38 35 33 32 32 32 33 33 31 30 30 31 32 32 32 32 31 30 28 27 27 27 27 27 27 28 29 30 32 32 32 32 31 30 30 31 32 32 32 32 33 34 34 32 30 28 27 29 30 30 31 32 33 34
34 33 27 25 27 33 39 40 39 37 35 32 32 32 32 33 32 31 31 31 30 30 30 29 28 26 24 22 22 23 24 26 27 28 29 29 30 30 29 29 28 26 25 25 26 26 26 27 27 27 29 29 28 27 27 28 30 32 33 34 35 36 37
35 32 29 28 29 31 35 38 39 38 36 34 33 33 32 31 30 30 30 29 28 26 25 24 22 21 21 21 21 23 24 26 28 29 30 30 30 30 29 28 26 25 24 25 25 25 24 25 25 25 26 27 28 29 29 30 32 34 36 38 38 38 39
37 34 32 33 34 34 36 40 41 39 37 37 36 34 32 29 27 28 27 25 24 22 21 21 20 20 21 22 23 25 26 27 28 28 28 28 29 29 28 27 25 25 25 26 27 27 27 27 27 27 28 29 31 31 31 31 32 35 38 41 42 42 40
38 37 35 36 38 38 40 42 41 38 36 37 37 36 34 30 27 27 26 24 24 23 23 22 21 21 22 23 25 26 27 28 27 26 26 27 28 28 27 26 25 25 26 27 27 28 29 30 30 31 31 32 32 33 33 34 36 38 40 42 43 43 42
36 37 36 36 40 43 43 42 41 39 39 39 38 36 35 32 30 28 27 26 26 26 25 24 23 23 24 24 26 27 28 28 28 28 27 26 27 28 27 27 26 25 24 25 27 29 30 31 33 33 33 34 35 36 39 41 43 43 42 42 42 43 43
36 38 38 37 40 43 44 44 43 41 40 40 39 38 37 36 34 32 31 30 29 28 28 28 27 27 26 26 28 29 29 30 31 31 30 29 30 30 30 29 28 26 25 26 28 30 30 32 34 36 37 38 39 41 44 46 46 45 44 43 43 44 44
38 40 40 39 39 40 42 46 47 44 41 40 41 41 41 41 39 37 35 34 33 32 33 33 32 31 31 30 30 30 31 32 33 34 33 33 33 32 32 31 30 30 29 29 30 31 31 31 33 35 37 39 41 43 44 45 44 43 43 43 44 44 44
42 41 42 41 40 41 43 47 49 48 46 43 41 39 40 42 43 41 38 36 36 36 37 38 38 37 36 35 33 33 34 35 36 37 37 36 36 36 36 35 35 34 34 33 33 34 34 34 33 34 36 38 40 42 42 43 43 43 43 43 44 45 47
48 46 45 45 44 44 45 49 52 51 49 47 43 39 39 42 44 42 40 38 38 38 39 41 42 41 40 39 37 36 36 37 38 39 40 40 40 40 41 40 40 39 38 38 38 38 38 38 37 37 38 39 40 41 42 43 43 44 44 45 46 47 49
53 50 48 47 47 46 46 49 52 53 51 50 48 44 44 45 44 42 41 42 42 41 42 44 45 46 46 44 42 41 40 41 42 42 42 43 43 43 44 44 44 44 43 43 42 42 42 41 42 42 42 43 44 44 44 45 46 46 47 48 49 50 52
55 53 51 51 50 49 47 48 51 52 53 52 50 48 48 49 48 44 43 44 46 47 47 48 49 50 52 52 50 48 46 46 46 46 45 45 46 46 47 47 48 48 49 48 46 45 45 45 45 46 46 47 47 48 48 48 48 48 49 51 52 54 55
54 54 56 56 54 53 52 51 51 52 54 56 55 52 52 53 53 51 49 49 51 52 52 53 53 53 54 56 56 54 52 51 50 48 48 47 48 49 50 51 52 52 52 51 50 49 48 48 49 49 49 50 50 50 50 51 51 51 52 53 55 57 59
59 59 61 61 58 56 56 56 56 56 58 60 59 58 57 57 58 59 59 58 59 59 58 57 56 55 56 58 59 58 57 55 53 51 50 50 50 52 53 54 55 55 55 54 53 52 51 51 52 52 52 52 53 53 54 54 54 54 55 56 58 60 62
65 65 65 64 63 60 59 59 60 60 62 64 63 62 61 60 60 62 63 63 63 62 61 61 59 58 59 61 62 62 60 58 56 54 53 53 53 54 55 56 57 58 58 57 56 55 55 54 55 55 55 55 56 56 57 57 57 58 59 60 61 63 66
68 68 67 67 66 64 62 61 62 64 67 67 64 62 62 61 62 63 64 64 64 63 63 63 63 62 63 65 65 65 63 61 59 58 57 56 57 57 58 58 59 60 60 59 59 59 58 58 58 58 59 59 60 60 60 60 60 61 62 63 65 67 70
71 70 69 68 68 67 66 65 62 61 63 65 65 62 59 59 61 63 64 65 67 67 66 66 66 66 66 67 68 68 67 65 63 62 61 60 60 61 61 61 62 62 61 61 61 61 61 61 62 62 63 63 64 63 63 63 63 65 66 68 70 72 74
75 73 71 70 69 68 67 67 65 61 59 61 63 61 58 58 60 62 62 62 63 67 69 71 71 71 70 71 72 72 72 70 69 68 66 65 64 64 64 64 64 64 64 64 63 63 64 64 65 65 65 65 65 65 65 66 67 68 70 72 73 75 77
81 78 74 71 69 68 68 69 71 70 68 66 65 63 62 63 65 65 64 62 61 62 65 67 69 71 71 72 74 75 74 73 72 71 69 68 67 67 67 67 67 67 66 66 66 67 67 68 68 67 67 67 67 67 68 69 70 72 73 74 76 78 80
Wind_Direction
273 277 278 279 281 283 284 285 289 294 293 287 282 277 270 264 260 259 259 260 261 261 262 262 262 262 264 266 269 270 269 269 271 273 273 274 275 277 279 280 281 280 277 276 278 280 284 289 293 295 295 293 291 287 284 287 290 292 294 295 295 294 293
276 279 280 280 279 278 279 280 284 289 289 287 283 277 271 266 262 259 259 261 262 263 263 264 265 264 264 266 269 271 271 271 274 275 275 276 277 279 280 279 278 275 273 274 277 281 287 292 295 296 294 291 288 284 282 283 284 286 291 292 291 291 289
279 282 284 284 282 279 279 279 281 284 286 287 285 277 270 266 264 262 260 260 262 262 261 262 264 265 266 267 268 270 270 271 274 275 277 279 280 280 278 277 275 273 274 277 280 285 290 293 295 295 292 288 284 282 281 281 280 282 286 287 287 287 287
278 280 281 284 287 286 284 281 279 280 282 284 285 279 271 265 263 263 261 260 260 260 260 261 262 263 265 266 267 269 270 272 274 275 276 277 277 276 274 274 275 276 279 283 287 290 292 293 293 292 288 284 282 280 279 279 278 278 281 285 288 289 290
276 274 273 279 288 291 290 286 281 279 279 281 282 279 271 264 261 260 259 257 257 258 259 261 262 262 263 265 266 268 270 272 273 273 273 274 273 274 275 278 280 282 285 288 291 292 292 292 291 289 284 281 279 278 278 278 278 277 280 286 289 290 291
272 268 272 281 291 296 296 292 286 282 280 279 280 278 271 264 261 259 257 256 256 256 258 260 260 260 262 264 266 268 270 272 273 273 272 273 274 276 279 282 284 286 289 290 291 291 291 290 288 285 281 279 277 275 275 276 278 280 283 287 289 290 291
274 274 281 289 296 301 303 299 290 284 281 279 279 277 272 267 263 260 258 257 256 256 257 258 259 259 260 263 266 268 270 271 271 271 272 273 275 278 282 284 287 289 290 290 290 290 290 288 285 281 278 277 275 274 275 277 280 283 285 288 289 289 289
277 281 287 291 295 302 307 304 291 283 281 279 278 275 270 264 260 258 257 257 257 258 258 259 259 261 262 264 266 267 268 269 270 271 272 274 277 280 283 286 288 290 290 290 290 290 288 285 282 279 277 276 275 276 277 279 281 283 285 285 282 282 285
274 280 286 289 292 300 308 305 291 283 282 279 278 275 266 259 257 257 255 254 256 257 258 259 260 262 263 265 266 267 268 270 271 272 274 276 279 282 284 286 288 289 289 288 288 287 285 283 280 278 278 276 274 275 276 278 280 278 275 272 274 280 285
268 275 283 286 288 296 304 303 291 284 285 282 280 277 270 264 261 259 256 254 255 255 256 260 262 263 263 264 265 267 268 270 271 274 277 279 282 284 286 287 287 287 286 286 285 284 284 283 280 278 277 274 271 272 274 276 273 268 266 269 276 282 284
261 269 276 279 284 291 296 298 291 285 286 287 285 281 276 271 265 260 257 256 255 254 254 257 260 261 261 262 263 264 266 268 271 275 279 282 284 285 286 286 285 284 283 283 282 282 283 283 279 276 273 269 268 269 270 269 265 264 267 273 277 279 278
255 262 266 270 280 289 292 293 288 283 287 291 289 285 279 274 267 261 257 256 255 254 252 253 255 258 258 259 261 263 267 270 274 278 280 282 283 284 284 283 282 280 280 280 280 280 281 280 276 272 268 265 264 264 264 262 261 263 268 272 274 274 275
254 264 267 273 280 286 289 289 285 282 285 291 291 287 282 276 269 263 259 258 257 256 255 253 253 255 257 259 262 267 272 275 277 279 280 282 282 282 281 280 278 277 277 278 278 278 278 276 272 269 265 262 260 260 261 261 262 264 267 270 271 273 277
251 263 272 278 281 284 288 288 285 283 283 288 291 288 283 277 270 266 263 260 257 257 256 255 254 255 258 262 266 270 274 276 278 279 280 280 280 279 278 276 275 275 275 275 275 275 275 272 269 268 266 264 261 259 260 262 265 267 268 269 272 275 277
242 242 254 268 274 281 291 294 291 287 284 284 287 286 283 278 271 267 264 261 259 258 257 256 256 257 260 265 269 271 273 275 277 278 278 279 278 277 275 274 273 273 273 272 271 271 270 269 269 269 267 265 263 262 262 264 267 269 270 272 273 274 274
240 233 233 250 262 273 288 294 292 289 285 282 282 283 282 278 272 266 264 263 261 261 261 261 261 262 264 267 270 272 273 274 276 276 277 277 277 275 274 272 272 272 271 270 268 267 267 267 268 268 266 265 265 265 265 266 268 269 270 271 271 271 273
239 233 229 242 258 270 282 287 288 288 285 281 279 280 280 277 273 269 266 265 265 264 264 264 264 265 267 270 273 274 275 275 276 277 278 277 276 275 273 272 271 270 269 267 266 265 265 265 265 264 264 266 267 267 267 267 268 267 268 269 270 272 275
234 229 227 239 258 270 276 279 283 286 284 281 279 279 278 276 274 272 270 268 266 264 263 262 263 266 269 273 275 276 277 278 279 280 282 281 280 277 275 272 270 269 267 264 263 262 263 262 262 263 264 265 266 266 266 267 267 266 268 270 273 274 275
230 229 228 231 247 263 270 272 279 285 286 284 281 278 275 274 274 273 270 267 264 263 262 263 265 268 271 273 275 277 279 282 284 285 286 285 283 280 276 272 269 267 264 262 261 261 261 260 261 262 263 264 264 263 263 266 269 270 271 272 274 275 276
230 230 230 222 228 250 261 266 275 287 291 288 282 277 274 272 273 271 268 265 264 264 264 265 266 268 269 270 273 278 282 285 287 288 287 285 282 279 275 271 269 265 261 259 260 260 260 259 259 258 260 261 261 261 263 266 271 274 275 274 273 274 275
230 231 232 224 222 236 250 261 273 284 291 289 282 277 274 271 269 267 265 265 264 263 262 262 264 266 268 272 275 279 284 287 289 289 286 283 279 275 272 269 265 261 258 257 258 258 257 256 255 253 254 256 259 262 265 268 272 275 277 277 275 275 276
234 234 237 234 232 236 245 256 268 277 283 286 282 277 273 270 267 265 264 262 261 259 258 258 261 264 270 275 280 284 287 290 291 289 284 279 274 271 268 265 262 261 262 263 263 262 260 259 257 254 253 255 260 263 267 271 276 279 279 278 278 278 278
237 237 239 239 241 244 245 252 262 270 274 278 280 277 273 269 266 265 263 261 259 258 257 257 260 264 271 277 282 286 290 292 291 288 282 276 271 267 265 263 264 266 269 270 269 268 266 264 262 259 257 258 260 264 269 276 281 283 282 280 279 280 281
238 237 236 238 243 249 251 253 260 266 268 270 274 276 274 270 266 265 263 261 260 259 257 258 261 266 270 275 279 284 287 288 288 285 281 276 270 268 268 268 270 271 271 271 272 272 271 269 267 265 263 262 264 267 274 279 283 284 283 281 279 281 283
237 236 237 240 244 249 253 255 257 261 262 262 265 270 272 271 268 265 263 261 261 260 256 257 262 266 269 272 276 278 280 280 281 281 280 276 272 271 271 271 271 270 269 271 275 277 275 272 270 268 267 267 268 270 275 279 281 283 283 282 281 283 285
232 236 240 244 247 248 250 252 254 255 256 257 260 264 267 268 268 266 264 263 262 260 257 258 261 265 270 273 274 273 273 274 275 278 278 277 274 272 271 271 271 270 271 273 277 281 281 279 276 273 271 271 271 273 275 278 279 281 282 283 285 288 291
224 230 236 240 243 245 247 251 254 255 256 256 258 259 261 263 265 266 266 264 262 260 259 259 261 264 269 273 274 271 269 270 272 274 276 277 275 273 273 274 273 273 274 277 279 282 284 284 283 282 280 278 278 277 278 279 279 279 281 285 289 293 294
220 224 229 234 238 242 246 251 255 257 256 255 256 258 257 258 261 264 265 264 263 263 262 262 263 265 267 270 272 270 269 271 272 274 275 275 275 274 274 276 276 275 277 279 281 283 285 286 287 287 286 285 285 283 281 281 281 283 287 291 294 295 295
225 225 227 231 235 238 243 249 254 256 257 255 255 256 256 258 261 263 262 260 261 264 265 265 266 267 267 268 270 270 271 273 274 274 274 273 273 274 275 278 278 278 279 282 285 286 286 287 287 287 288 288 288 288 287 287 288 290 292 293 293 294 294
230 231 230 231 233 235 239 246 251 254 255 255 254 253 255 258 261 263 262 261 261 263 266 268 268 268 267 267 269 271 273 275 275 274 273 272 272 273 276 279 280 281 282 284 286 287 286 286 286 286 287 289 290 291 292 292 292 291 291 290 291 292 293
230 233 234 234 234 234 236 240 245 249 252 253 253 253 255 257 258 260 262 264 264 265 268 269 269 268 267 267 268 270 273 274 275 274 272 272 273 274 276 278 281 282 283 284 286 286 286 285 286 287 288 290 291 292 293 292 291 290 290 290 291 292 293
228 230 232 233 234 233 234 236 239 244 249 253 254 254 256 257 258 259 261 263 265 267 268 269 268 266 264 264 265 268 271 273 274 273 272 272 273 274 276 279 280 282 283 284 285 285 285 285 286 288 289 290 291 292 292 292 291 291 291 292 293 294 294
228 231 233 234 234 235 236 237 239 243 248 252 255 256 258 259 261 261 261 262 263 265 267 268 266 263 261 261 263 266 269 272 273 273 272 272 273 274 276 278 280 282 283 284 284 285 285 286 287 288 289 290 290 291 291 291 292 292 293 293 293 293 293
228 232 235 236 236 237 239 240 242 245 248 252 254 257 260 261 261 261 261 260 262 263 264 264 263 260 258 259 262 265 268 271 272 273 273 272 273 274 276 277 279 281 282 283 284 285 286 286 287 288 289 290 291 292 292 292 292 292 292 292 291 292 293
227 232 237 238 238 238 239 241 243 246 251 253 253 255 257 259 259 260 261 262 263 262 261 260 259 258 258 259 261 265 267 270 271 273 273 273 273 274 275 276 278 279 280 281 283 284 285 285 286 288 289 291 292 293 293 293 292 291 290 290 291 293 294
228 231 236 239 238 236 238 240 241 242 246 250 252 252 253 254 255 257 259 262 264 264 262 260 258 258 258 259 262 264 267 269 271 272 273 273 273 274 275 276 277 279 280 280 281 282 282 284 286 288 289 291 291 291 291 291 290 289 290 291 292 293 294
230 233 236 238 237 234 235 237 238 238 240 243 246 248 248 249 251 253 255 257 260 263 264 264 264 263 263 263 265 266 268 270 272 273 273 273 273 274 275 276 277 278 279 279 280 280 282 283 285 287 288 289 289 289 289 289 289 289 290 291 292 293 294
Height
10687 10688 10689 10690 10690 10690 10689 10688 10688 10689 10689 10689 10689 10690 10690 10690 10690 10690 10689 10690 10693 10695 10696 10697 10698 10699 10699 10700 10701 10701 10701 10701 10701 10702 10702 10701 10702 10702 10702 10701 10702 10702 10701 10700 10700 10699 10699 10697 10696 10694 10691 10688 10686 10685 10684 10684 10685 10685 10685 10684 10684 10683 10683
10682 10683 10684 10684 10684 10684 10684 10683 10683 10683 10684 10684 10684 10684 10684 10684 10684 10684 10685 10687 10689 10689 10689 10690 10692 10694 10694 10695 10696 10697 10697 10698 10698 10698 10698 10698 10698 10698 10698 10698 10698 10698 10697 10696 10696 10695 10694 10693 10692 10689 10686 10684 10682 10681 10681 10682 10682 10682 10682 10681 10681 10681 10680
10677 10678 10679 10679 10679 10678 10677 10677 10677 10677 10677 10677 10677 10677 10678 10678 10677 10678 10681 10684 10685 10684 10683 10684 10687 10689 10689 10690 10691 10692 10693 10693 10694 10694 10694 10694 10694 10694 10694 10694 10694 10695 10694 10693 10692 10691 10690 10688 10687 10685 10682 10680 10679 10677 10677 10678 10679 10679 10678 10678 10678 10678 10677
10673 10674 10674 10674 10673 10672 10671 10670 10670 10670 10671 10671 10671 10671 10671 10672 10672 10673 10676 10678 10679 10679 10678 10679 10683 10684 10685 10685 10686 10687 10687 10688 10689 10689 10689 10690 10690 10690 10690 10691 10691 10691 10691 10690 10688 10687 10684 10682 10681 10680 10678 10676 10675 10674 10673 10675 10676 10676 10675 10674 10675 10675 10674
10667 10668 10669 10668 10667 10666 10665 10664 10664 10664 10664 10665 10665 10665 10666 10667 10668 10669 10671 10672 10673 10673 10673 10675 10678 10680 10680 10680 10681 10682 10683 10684 10684 10685 10685 10686 10686 10686 10687 10687 10687 10686 10687 10686 10684 10682 10679 10678 10677 10676 10674 10672 10671 10670 10670 10671 10672 10672 10672 10671 10672 10672 10671
10662 10663 10662 10662 10661 10660 10659 10658 10658 10657 10658 10658 10659 10660 10661 10662 10663 10665 10666 10667 10668 10669 10669 10671 10673 10675 10675 10675 10676 10678 10679 10680 10680 10680 10681 10682 10682 10682 10682 10683 10682 10681 10681 10681 10679 10678 10675 10673 10672 10671 10670 10669 10668 10667 10666 10667 10669 10669 10668 10669 10668 10668 10668
10657 10657 10656 10656 10656 10655 10654 10653 10652 10651 10651 10652 10652 10654 10658 10658 10658 10659 10660 10661 10663 10664 10665 10666 10669 10670 10671 10671 10672 10674 10675 10676 10676 10676 10677 10677 10677 10678 10678 10678 10677 10676 10675 10675 10674 10673 10670 10668 10668 10667 10666 10665 10664 10664 10663 10664 10665 10665 10665 10665 10665 10665 10665
10652 10651 10651 10651 10651 10650 10649 10648 10647 10646 10646 10646 10647 10649 10654 10655 10653 10654 10655 10655 10657 10659 10659 10661 10664 10666 10667 10668 10669 10670 10671 10672 10672 10672 10672 10673 10673 10673 10673 10673 10672 10671 10670 10669 10668 10667 10666 10664 10664 10663 10662 10661 10660 10660 10660 10661 10662 10661 10661 10662 10662 10662 10662
10646 10646 10646 10646 10647 10646 10645 10644 10643 10642 10641 10641 10642 10644 10648 10650 10648 10649 10650 10651 10652 10653 10654 10656 10659 10661 10663 10664 10665 10665 10666 10667 10667 10667 10667 10668 10668 10668 10668 10668 10667 10665 10664 10663 10663 10662 10661 10660 10659 10658 10658 10658 10657 10657 10657 10658 10658 10658 10658 10659 10659 10659 10658
10640 10641 10641 10641 10642 10642 10641 10640 10639 10638 10638 10637 10638 10639 10641 10643 10643 10644 10645 10646 10648 10649 10650 10652 10654 10657 10658 10660 10661 10661 10662 10662 10662 10662 10662 10663 10663 10663 10663 10662 10661 10660 10659 10658 10657 10657 10657 10656 10655 10654 10654 10654 10654 10654 10654 10655 10655 10655 10655 10656 10655 10655 10654
10635 10637 10638 10638 10638 10638 10637 10636 10635 10635 10634 10634 10634 10634 10635 10637 10638 10639 10640 10642 10643 10645 10646 10648 10650 10651 10653 10655 10656 10656 10657 10657 10657 10658 10657 10658 10658 10658 10658 10657 10656 10655 10654 10653 10652 10653 10653 10652 10651 10650 10650 10650 10650 10651 10651 10652 10653 10652 10652 10652 10652 10651 10651
10632 10634 10634 10634 10634 10633 10632 10631 10631 10631 10631 10631 10630 10630 10631 10632 10633 10634 10636 10637 10638 10640 10643 10645 10646 10646 10647 10649 10651 10651 10651 10652 10652 10652 10652 10653 10653 10653 10652 10651 10650 10650 10649 10648 10648 10648 10648 10648 10648 10647 10647 10647 10647 10648 10648 10649 10650 10649 10648 10649 10648 10648 10647
10632 10631 10630 10630 10630 10629 10628 10627 10627 10627 10627 10627 10627 10627 10627 10628 10628 10629 10631 10633 10634 10635 10638 10641 10642 10642 10643 10644 10646 10646 10646 10646 10647 10647 10647 10647 10647 10647 10647 10646 10645 10645 10644 10644 10644 10644 10644 10644 10644 10644 10644 10644 10644 10644 10645 10646 10646 10646 10645 10645 10645 10644 10643
10630 10629 10627 10625 10625 10626 10625 10624 10623 10623 10624 10624 10623 10623 10624 10624 10625 10625 10627 10629 10629 10631 10633 10636 10638 10639 10639 10640 10641 10642 10641 10641 10641 10641 10641 10641 10641 10641 10641 10640 10640 10640 10640 10640 10639 10639 10640 10640 10640 10641 10640 10640 10641 10641 10641 10641 10642 10642 10641 10641 10641 10640 10639
10624 10626 10625 10621 10621 10623 10622 10620 10619 10619 10620 10620 10620 10620 10621 10622 10622 10622 10624 10625 10626 10626 10628 10630 10632 10635 10636 10636 10636 10637 10636 10636 10636 10636 10636 10636 10636 10636 10635 10635 10635 10635 10635 10635 10635 10635 10635 10636 10636 10636 10636 10636 10636 10637 10636 10637 10638 10639 10638 10637 10637 10636 10635
10619 10621 10621 10618 10617 10618 10617 10616 10616 10616 10616 10616 10617 10617 10618 10619 10619 10620 10620 10621 10621 10622 10623 10625 10627 10629 10631 10631 10631 10631 10631 10631 10631 10631 10631 10630 10630 10630 10630 10630 10630 10631 10631 10630 10630 10630 10631 10631 10631 10632 10631 10631 10632 10633 10632 10633 10634 10635 10634 10633 10632 10632 10631
10615 10617 10617 10615 10614 10614 10613 10612 10612 10612 10611 10611 10612 10613 10613 10614 10615 10616 10616 10617 10617 10618 10619 10620 10622 10624 10626 10627 10626 10625 10625 10625 10625 10625 10625 10625 10625 10625 10625 10625 10626 10627 10627 10626 10625 10626 10627 10627 10627 10627 10627 10627 10628 10629 10629 10628 10629 10630 10630 10629 10628 10628 10627
10611 10613 10614 10614 10612 10610 10609 10608 10607 10607 10606 10606 10607 10608 10608 10609 10610 10611 10612 10613 10613 10614 10615 10616 10618 10620 10621 10622 10622 10621 10620 10620 10620 10621 10621 10620 10620 10620 10621 10621 10622 10622 10623 10621 10621 10622 10623 10623 10623 10623 10622 10623 10624 10625 10625 10624 10624 10625 10625 10625 10624 10623 10623
10607 10608 10609 10611 10610 10606 10602 10602 10603 10602 10601 10601 10602 10603 10603 10604 10606 10608 10609 10610 10610 10611 10611 10612 10614 10616 10618 10619 10618 10617 10617 10616 10617 10617 10617 10617 10616 10616 10617 10617 10618 10618 10618 10617 10617 10617 10618 10619 10619 10619 10618 10619 10620 10621 10621 10620 10619 10620 10620 10621 10620 10619 10618
10604 10604 10604 10605 10606 10603 10597 10596 10598 10599 10598 10597 10598 10599 10600 10602 10603 10605 10606 10607 10607 10608 10608 10609 10610 10612 10614 10615 10615 10615 10614 10614 10614 10614 10614 10613 10613 10613 10613 10614 10614 10615 10614 10614 10614 10614 10615 10615 10616 10617 10616 10616 10616 10617 10618 10617 10616 10615 10614 10615 10616 10615 10614
10601 10602 10601 10600 10600 10597 10593 10591 10594 10596 10596 10595 10595 10596 10597 10599 10601 10602 10603 10603 10605 10606 10606 10606 10607 10608 10610 10611 10612 10612 10612 10611 10611 10611 10610 10610 10610 10610 10610 10611 10611 10611 10611 10611 10612 10612 10613 10613 10614 10615 10614 10613 10613 10613 10614 10614 10613 10612 10610 10609 10609 10610 10609
10599 10599 10598 10597 10596 10593 10590 10589 10592 10595 10595 10593 10592 10593 10595 10597 10599 10599 10600 10601 10602 10603 10604 10604 10605 10606 10607 10607 10607 10608 10608 10609 10609 10608 10608 10607 10607 10607 10608 10608 10609 10609 10609 10609 10610 10610 10610 10611 10611 10612 10612 10611 10609 10609 10610 10610 10610 10609 10607 10604 10603 10604 10604
10595 10595 10595 10594 10593 10590 10587 10586 10589 10593 10593 10590 10590 10590 10592 10594 10596 10597 10598 10599 10599 10600 10601 10602 10604 10605 10605 10604 10603 10603 10604 10604 10605 10605 10605 10605 10605 10605 10605 10606 10607 10608 10608 10607 10607 10607 10607 10607 10607 10608 10608 10608 10607 10606 10605 10605 10605 10605 10604 10601 10599 10598 10599
10590 10591 10590 10590 10589 10587 10585 10584 10585 10588 10589 10587 10587 10587 10589 10591 10593 10594 10595 10596 10597 10598 10599 10600 10601 10602 10603 10603 10602 10600 10600 10600 10600 10602 10603 10603 10602 10602 10603 10604 10605 10606 10606 10605 10604 10603 10603 10604 10604 10604 10604 10604 10604 10603 10601 10600 10599 10598 10598 10598 10596 10595 10594
10586 10584 10584 10585 10584 10583 10582 10581 10581 10583 10584 10583 10584 10584 10586 10588 10589 10590 10591 10592 10593 10595 10596 10597 10597 10598 10599 10600 10600 10599 10597 10596 10596 10597 10599 10599 10599 10599 10599 10601 10602 10602 10603 10603 10601 10600 10600 10600 10600 10600 10600 10600 10600 10599 10597 10595 10594 10592 10592 10591 10591 10590 10589
10580 10580 10580 10581 10580 10578 10577 10576 10576 10579 10579 10578 10580 10581 10583 10583 10585 10586 10587 10588 10589 10590 10592 10593 10594 10594 10595 10596 10597 10598 10596 10594 10593 10593 10594 10595 10595 10595 10596 10597 10597 10598 10598 10599 10598 10596 10595 10596 10596 10595 10595 10595 10594 10593 10592 10591 10590 10588 10587 10585 10584 10583 10581
10575 10577 10577 10577 10576 10575 10574 10571 10570 10573 10574 10574 10575 10577 10578 10578 10579 10582 10584 10584 10584 10585 10587 10588 10590 10591 10591 10592 10593 10594 10593 10591 10590 10589 10589 10590 10590 10591 10592 10592 10593 10593 10594 10594 10594 10592 10591 10591 10591 10590 10590 10589 10588 10588 10587 10586 10585 10584 10582 10580 10578 10576 10574
10568 10570 10571 10572 10572 10572 10571 10568 10566 10566 10568 10569 10571 10573 10573 10572 10573 10577 10580 10580 10580 10580 10582 10583 10585 10586 10587 10588 10589 10589 10588 10588 10587 10586 10585 10584 10585 10585 10586 10587 10588 10588 10588 10588 10588 10588 10587 10586 10585 10585 10584 10583 10582 10582 10581 10580 10578 10577 10575 10573 10571 10569 10568
10562 10565 10566 10566 10566 10568 10568 10566 10563 10562 10562 10563 10566 10569 10569 10567 10567 10571 10574 10575 10575 10576 10577 10578 10580 10581 10582 10583 10583 10584 10584 10583 10583 10582 10581 10580 10579 10579 10580 10581 10582 10582 10582 10582 10582 10582 10581 10581 10580 10579 10577 10576 10575 10574 10573 10572 10570 10569 10566 10564 10563 10561 10560
10557 10561 10562 10561 10561 10562 10564 10563 10561 10559 10557 10557 10560 10563 10563 10563 10564 10565 10567 10568 10569 10570 10572 10573 10575 10576 10576 10576 10577 10577 10578 10578 10578 10577 10577 10575 10574 10574 10574 10575 10575 10575 10575 10575 10575 10575 10574 10574 10573 10572 10571 10569 10568 10567 10566 10564 10562 10560 10558 10556 10554 10553 10551
10554 10556 10555 10554 10555 10558 10559 10559 10557 10555 10552 10550 10554 10557 10557 10558 10559 10560 10561 10562 10562 10563 10565 10567 10569 10571 10571 10570 10570 10570 10571 10572 10572 10572 10571 10570 10568 10567 10568 10569 10569 10568 10568 10568 10568 10567 10567 10566 10565 10565 10564 10562 10561 10560 10558 10556 10554 10552 10550 10548 10546 10544 10543
10547 10547 10545 10546 10549 10552 10553 10553 10552 10550 10547 10545 10548 10551 10551 10552 10553 10554 10555 10556 10555 10556 10558 10559 10562 10564 10564 10564 10563 10563 10564 10565 10566 10565 10565 10564 10562 10561 10560 10561 10561 10561 10561 10561 10560 10559 10559 10558 10557 10556 10555 10555 10553 10552 10550 10547 10545 10543 10541 10540 10538 10536 10534
10539 10539 10538 10540 10543 10545 10547 10548 10547 10546 10542 10540 10543 10545 10546 10547 10547 10547 10548 10549 10548 10549 10551 10552 10553 10555 10556 10556 10556 10556 10557 10557 10558 10558 10558 10557 10556 10555 10553 10553 10553 10554 10553 10553 10552 10551 10550 10549 10548 10548 10547 10546 10544 10543 10541 10538 10536 10534 10533 10531 10529 10528 10526
10532 10533 10534 10536 10538 10541 10543 10543 10543 10541 10537 10536 10539 10541 10541 10541 10541 10540 10540 10541 10541 10542 10543 10544 10545 10546 10548 10548 10548 10548 10549 10550 10550 10550 10550 10550 10549 10548 10547 10546 10545 10545 10545 10544 10543 10542 10541 10540 10539 10538 10537 10536 10534 10533 10531 10529 10527 10525 10524 10522 10520 10518 10516
10525 10527 10529 10531 10533 10536 10537 10537 10537 10536 10532 10531 10533 10535 10535 10535 10535 10533 10533 10533 10533 10533 10535 10536 10537 10538 10539 10540 10540 10540 10541 10542 10543 10543 10542 10542 10542 10541 10540 10539 10538 10537 10537 10536 10535 10534 10533 10531 10530 10528 10527 10526 10525 10523 10522 10520 10519 10517 10515 10512 10510 10508 10506
10517 10520 10522 10524 10527 10529 10530 10530 10530 10528 10526 10525 10526 10528 10528 10528 10528 10527 10527 10525 10524 10523 10524 10526 10528 10530 10531 10531 10531 10531 10532 10533 10534 10534 10534 10534 10533 10532 10532 10531 10531 10530 10529 10528 10527 10526 10524 10523 10521 10520 10519 10517 10516 10514 10513 10511 10510 10507 10505 10503 10500 10499 10497
10509 10512 10514 10517 10520 10522 10522 10521 10519 10518 10517 10517 10517 10518 10519 10519 10520 10521 10521 10519 10516 10514 10514 10515 10516 10518 10521 10522 10521 10521 10523 10524 10523 10524 10524 10523 10523 10523 10523 10523 10522 10521 10520 10519 10518 10517 10516 10515 10513 10512 10511 10509 10507 10506 10504 10502 10500 10498 10496 10494 10491 10489 10487